This demonstration page uses our WeatherBlox Daily Observations layout. Learn more.

Left ArrowRight Arrow

39.51506, -84.39828

Hourly Observations for May 10, 2018

Temp ( °F °C ) Dew Point ( °F °C ) Humidity (%) Winds ( mph kmh ) Pressure ( in mb ) Visibility ( mi km ) Precip ( " mm )
1:55 am 01:55 Mostly Cloudy 73 23 60 15.5 63 63 SSW 16 26 29.80 1009 10 16 0.00 0.00
2:15 am 02:15 Partly Cloudy with Nearby Thunderstorms 72 22.4 60 15.8 66 66 SW 10 17 29.80 1009 10 16 0.00 0.00
2:35 am 02:35 Cloudy 73 22.6 60 15.6 65 65 W 12 19 29.83 1010 10 16 0.00 0.00
2:55 am 02:55 Cloudy with Nearby Thunderstorms 69 20.6 56 13.1 62 62 WSW 14 22 29.85 1011 10 16 0.00 0.00
3:15 am 03:15 Cloudy with Light Rain 65 18.2 59 14.9 81 81 WSW 10 17 29.83 1010 10 16 0.01 0.25
3:35 am 03:35 Cloudy 64 17.7 60 15.4 86 86 SW 14 22 29.83 1010 10 16 0.02 0.51
3:55 am 03:55 Mostly Cloudy 63 17.1 60 15.7 92 92 SSW 6 9 29.83 1010 10 16 0.04 1.02
4:15 am 04:15 Mostly Cloudy 63 17.1 60 15.8 92 92 WSW 3 6 29.83 1010 10 16 0.00 0.00
4:35 am 04:35 Cloudy 62 16.9 61 16 94 94 SW 6 9 29.83 1010 10 16 0.00 0.00
4:55 am 04:55 Partly Cloudy with Nearby Thunderstorms 62 16.9 60 15.5 92 92 SSW 8 13 29.83 1010 10 16 0.00 0.00
5:15 am 05:15 Clear with Thunderstorms 62 16.9 60 15.4 91 91 SW 7 11 29.83 1010 10 16 0.00 0.00
5:35 am 05:35 Clear 61 16.1 59 15.1 94 94 W 5 7 29.83 1010 10 16 0.00 0.00
5:55 am 05:55 Clear 62 16.7 60 15.3 92 92 WSW 7 11 29.83 1010 10 16 0.00 0.00
6:15 am 06:15 Clear 61 15.9 59 14.9 94 94 WSW 5 7 29.83 1010 10 16 0.00 0.00
6:35 am 06:35 Sunny 59 15.1 58 14.4 96 96 SW 6 9 29.83 1010 10 16 0.00 0.00
6:55 am 06:55 Sunny 60 15.8 59 15 95 95 SW 6 9 29.83 1010 10 16 0.00 0.00
7:15 am 07:15 Sunny 62 16.5 60 15.6 94 94 SW 7 11 29.85 1011 10 16 0.00 0.00
7:35 am 07:35 Sunny 63 17.4 61 16.3 93 93 SW 5 7 29.85 1011 10 16 0.00 0.00
7:55 am 07:55 Sunny 66 19 62 16.5 86 86 WSW 8 13 29.85 1011 10 16 0.00 0.00
8:15 am 08:15 Sunny 65 18.6 61 16.1 85 85 WSW 10 17 29.88 1012 10 16 0.00 0.00
8:35 am 08:35 Sunny 67 19.2 62 16.4 84 84 WSW 7 11 29.88 1012 10 16 0.00 0.00
8:55 am 08:55 Sunny 68 20 62 16.9 82 82 WSW 7 11 29.88 1012 10 16 0.00 0.00
9:15 am 09:15 Sunny 69 20.6 62 16.4 77 77 WSW 12 19 29.88 1012 10 16 0.00 0.00
9:35 am 09:35 Sunny 70 21.1 61 16 73 73 WSW 14 22 29.88 1012 7 11 0.00 0.00
9:55 am 09:55 Sunny 71 21.6 60 15.6 69 69 WSW 12 19 29.88 1012 10 16 0.00 0.00
10:15 am 10:15 Sunny 72 22 60 15.3 66 66 W 10 17 29.91 1013 10 16 0.00 0.00
10:35 am 10:35 Sunny 72 22.4 58 14.6 61 61 W 13 20 29.91 1013 10 16 0.00 0.00
10:55 am 10:55 Sunny 73 22.9 57 14 57 57 W 15 24 29.91 1013 10 16 0.00 0.00
11:15 am 11:15 Sunny 74 23.3 56 13.2 53 53 WSW 20 31 29.91 1013 10 16 0.00 0.00
11:35 am 11:35 Sunny 74 23.5 55 12.9 51 51 W 15 24 29.91 1013 10 16 0.00 0.00
11:55 am 11:55 Sunny 75 24.1 56 13.3 51 51 W 15 24 29.91 1013 10 16 0.00 0.00
12:15 pm 12:15 Sunny 76 24.3 56 13.2 50 50 W 14 22 29.91 1013 10 16 0.00 0.00
12:35 pm 12:35 Sunny 76 24.5 55 12.7 48 48 W 21 33 29.91 1013 10 16 0.00 0.00
12:55 pm 12:55 Sunny 77 24.9 55 12.5 46 46 W 20 31 29.91 1013 10 16 0.00 0.00
1:15 pm 13:15 Sunny 77 25.2 55 12.9 46 46 W 14 22 29.91 1013 10 16 0.00 0.00
1:35 pm 13:35 Partly Cloudy 78 25.4 56 13.1 47 47 WNW 15 24 29.91 1013 10 16 0.00 0.00
1:55 pm 13:55 Partly Cloudy 78 25.8 57 13.9 48 48 WSW 22 35 29.91 1013 10 16 0.00 0.00
2:15 pm 14:15 Partly Cloudy 79 25.9 56 13.1 45 45 W 13 20 29.91 1013 10 16 0.00 0.00
2:35 pm 14:35 Partly Cloudy 79 26 57 13.7 47 47 W 14 22 29.91 1013 10 16 0.00 0.00
2:50 pm 14:50 Partly Cloudy 79 26.1 55 12.6 43 43 W 17 28 29.91 1013 10 16 0.00 0.00
3:15 pm 15:15 Sunny 80 26.6 55 12.5 42 42 W 21 33 29.91 1013 10 16 0.00 0.00
3:35 pm 15:35 Partly Cloudy 80 26.6 54 12.4 41 41 WNW 17 28 29.91 1013 10 16 0.00 0.00
3:55 pm 15:55 Partly Cloudy 80 26.8 55 12.6 41 41 WNW 14 22 29.91 1013 10 16 0.00 0.00
4:15 pm 16:15 Sunny 80 26.8 52 11.2 38 38 W 21 33 29.91 1013 10 16 0.00 0.00
4:35 pm 16:35 Partly Cloudy 81 27 54 12 39 39 W 15 24 29.91 1013 10 16 0.00 0.00
4:55 pm 16:55 Partly Cloudy 79 26.3 53 11.4 39 39 W 14 22 29.91 1013 10 16 0.00 0.00
5:15 pm 17:15 Partly Cloudy 80 26.8 54 12.1 40 40 WNW 15 24 29.91 1013 10 16 0.00 0.00
5:35 pm 17:35 Sunny 80 26.8 53 11.6 39 39 WNW 14 22 29.91 1013 10 16 0.00 0.00
5:55 pm 17:55 Sunny 80 26.6 52 11.2 38 38 W 14 22 29.91 1013 10 16 0.00 0.00
6:15 pm 18:15 Sunny 80 26.4 53 11.4 39 39 W 14 22 29.91 1013 10 16 0.00 0.00
6:35 pm 18:35 Sunny 79 26.1 52 11.1 39 39 WNW 12 19 29.91 1013 10 16 0.00 0.00
6:55 pm 18:55 Sunny 79 26 52 11.1 39 39 WNW 9 15 29.91 1013 10 16 0.00 0.00
7:15 pm 19:15 Sunny 78 25.4 53 11.5 42 42 WNW 10 17 29.88 1012 10 16 0.00 0.00
7:35 pm 19:35 Partly Cloudy 78 25.3 52 11.1 41 41 NW 7 11 29.91 1013 10 16 0.00 0.00
7:55 pm 19:55 Sunny 76 24.5 53 11.4 44 44 NW 5 7 29.91 1013 10 16 0.00 0.00
8:15 pm 20:15 Sunny 75 23.8 52 11.2 45 45 NNW 6 9 29.91 1013 10 16 0.00 0.00
8:35 pm 20:35 Sunny 74 23.2 52 11.1 47 47 Calm 29.91 1013 10 16 0.00 0.00
8:55 pm 20:55 Clear 68 19.9 58 14.5 71 71 Calm 29.91 1013 10 16 0.00 0.00
9:15 pm 21:15 Clear 66 19 58 14.2 74 74 Calm 29.91 1013 10 16 0.00 0.00
9:35 pm 21:35 Clear 65 18.4 56 13.5 73 73 N 3 6 29.91 1013 10 16 0.00 0.00
9:55 pm 21:55 Clear 65 18.1 55 12.8 71 71 N 3 6 29.94 1014 10 16 0.00 0.00
10:15 pm 22:15 Clear 62 16.7 55 12.9 78 78 N 3 6 29.94 1014 10 16 0.00 0.00
10:35 pm 22:35 Partly Cloudy 62 16.4 56 13.1 81 81 Calm 29.94 1014 10 16 0.00 0.00
10:55 pm 22:55 Clear 62 16.4 56 13.5 83 83 Calm 29.97 1015 10 16 0.00 0.00
11:15 pm 23:15 Clear 62 16.5 56 13.4 82 82 Calm 29.94 1014 10 16 0.00 0.00
11:35 pm 23:35 Clear 60 15.4 55 12.8 85 85 N 5 7 29.97 1015 10 16 0.00 0.00
11:55 pm 23:55 Clear 60 15.5 56 13.1 86 86 NE 3 6 29.97 1015 10 16 0.00 0.00

Powered by AerisWeather